Weather History for KCDW - January, 2015

Change the Weather History Date:

Monday, January 12, 2015

  Actual Average Record
Temperature  
Mean Temperature 34 °F -  
Max Temperature 36 °F 35 °F 65 °F (1975)
Min Temperature 32 °F 16 °F -9 °F (1981)
Degree Days  
Heating Degree Days 31    
Moisture  
Dew Point 29 °F    
Average Humidity 83    
Maximum Humidity 96    
Minimum Humidity 46    
Precipitation  
Precipitation 0.31 in - - ()
Sea Level Pressure  
Sea Level Pressure 30.24 in    
Wind  
Wind Speed 2 mph (SW)    
Max Wind Speed 6 mph    
Max Gust Speed -    
Visibility 5 miles    
Events Rain    
Averages and records for this station are not official NWS values.
T = Trace of Precipitation, MM = Missing Value Source: NWS Daily Summary

Daily Weather History Graph

Daily Weather History Graph

Search for Another Location

Airport or City:

Trip Planner

Search our weather history database for the weather conditions in past years. The results will help you decide how hot, cold, wet, or windy it might be!

Date:

Astronomy

Jan. 12, 2015 Rise Set
Actual Time 7:20 AM EST 4:50 PM EST
Civil Twilight 6:50 AM EST 5:20 PM EST
Nautical Twilight 6:16 AM EST 5:54 PM EST
Astronomical Twilight 5:43 AM EST 6:27 PM EST
Moon No Moon Rise 11:01 AM EST (1/12)
Length of Visible Light 10h 30m
Length of Day
9h 29m
Waning Gibbous, 57% of the Moon is Illuminated
Jan 12
Waning Gibbous
Jan 13
Last Quarter
Jan 20
New
Jan 26
First Quarter
Feb 3
Full

Hourly Weather History & Observations

Time (EST) Temp. Windchill Dew Point Humidity Pressure Visibility Wind Dir Wind Speed Gust Speed Precip Events Conditions
12:53 AM 33.1 °F - 14.0 °F 46% 30.49 in 10.0 mi Calm Calm - N/A   Overcast
1:53 AM 33.1 °F - 15.1 °F 48% 30.49 in 10.0 mi Calm Calm - N/A   Overcast
2:53 AM 33.1 °F - 18.0 °F 54% 30.48 in 10.0 mi Calm Calm - 0.00 in Rain Light Rain
3:53 AM 33.1 °F 30.0 °F 21.9 °F 64% 30.45 in 10.0 mi SW 3.5 mph - 0.00 in   Overcast
4:53 AM 32.0 °F 28.7 °F 25.0 °F 75% 30.42 in 10.0 mi SW 3.5 mph - 0.00 in   Overcast
5:53 AM 32.0 °F 28.7 °F 25.0 °F 75% 30.39 in 10.0 mi West 3.5 mph - 0.00 in   Overcast
6:53 AM 32.0 °F 28.7 °F 26.1 °F 79% 30.38 in 10.0 mi Variable 3.5 mph - 0.00 in   Overcast
7:53 AM 33.1 °F 28.7 °F 26.1 °F 75% 30.36 in 9.0 mi WSW 4.6 mph - 0.00 in Rain Light Rain
8:35 AM 33.1 °F 27.7 °F 28.0 °F 82% 30.34 in 5.0 mi SW 5.8 mph - 0.01 in Rain Light Rain
8:53 AM 32.0 °F 27.5 °F 28.9 °F 88% 30.36 in 4.0 mi Variable 4.6 mph - 0.02 in   Overcast
9:18 AM 32.0 °F 28.7 °F 30.0 °F 92% 30.33 in 4.0 mi SW 3.5 mph - 0.01 in   Overcast
9:27 AM 32.0 °F 27.5 °F 30.0 °F 92% 30.33 in 4.0 mi Variable 4.6 mph - 0.02 in   Overcast
9:51 AM 32.0 °F 27.5 °F 30.2 °F 93% 30.32 in 3.0 mi Variable 4.6 mph - 0.04 in   Overcast
9:53 AM 32.0 °F 28.7 °F 30.0 °F 92% 30.34 in 3.0 mi SSW 3.5 mph - 0.04 in   Overcast
10:10 AM 32.0 °F 27.5 °F 30.0 °F 92% 30.31 in 2.5 mi SSW 4.6 mph - 0.01 in   Overcast
10:44 AM 33.1 °F - 30.9 °F 92% 30.28 in 3.0 mi Calm Calm - 0.03 in Rain Light Rain
10:53 AM 33.1 °F - 30.9 °F 92% 30.29 in 3.0 mi Calm Calm - 0.03 in Rain Light Rain
11:27 AM 33.1 °F - 32.0 °F 96% 30.23 in 2.5 mi Calm Calm - 0.01 in Rain Light Rain
11:45 AM 33.1 °F - 30.9 °F 92% 30.22 in 2.0 mi Calm Calm - 0.03 in Rain Light Rain
11:53 AM 33.1 °F - 30.9 °F 92% 30.23 in 2.0 mi Calm Calm - 0.03 in Rain Light Rain
12:53 PM 33.1 °F - 30.9 °F 92% 30.21 in 2.0 mi Calm Calm - 0.06 in Rain Light Rain
1:10 PM 34.0 °F 31.0 °F 30.9 °F 89% 30.18 in 2.5 mi SW 3.5 mph - 0.01 in Rain Light Rain
1:18 PM 34.0 °F - 30.0 °F 85% 30.17 in 2.5 mi Calm Calm - 0.01 in Rain Light Rain
1:49 PM 33.8 °F - 30.2 °F 87% 30.15 in 2.5 mi Calm Calm - 0.05 in Rain Light Rain
1:53 PM 34.0 °F - 30.9 °F 89% 30.17 in 2.0 mi Calm Calm - 0.05 in Rain Light Rain
1:58 PM 34.0 °F - 30.0 °F 85% 30.14 in 2.5 mi Calm Calm - 0.00 in Rain Light Rain
2:10 PM 34.0 °F - 30.9 °F 89% 30.14 in 1.5 mi Calm Calm - 0.02 in Rain Light Rain
2:19 PM 34.0 °F - 30.9 °F 89% 30.14 in 3.0 mi Calm Calm - 0.02 in Rain Light Rain
2:29 PM 35.1 °F - 30.0 °F 82% 30.14 in 2.0 mi Calm Calm - 0.03 in Rain Light Rain
2:51 PM 35.6 °F - 30.2 °F 81% 30.14 in 3.0 mi Calm Calm - 0.05 in Rain Light Rain
2:53 PM 35.1 °F - 30.0 °F 82% 30.16 in 3.0 mi Calm Calm - 0.05 in Rain Light Rain
3:00 PM 35.1 °F - 30.9 °F 85% 30.14 in 1.8 mi Calm Calm - 0.01 in Rain Light Rain
3:24 PM 34.0 °F 31.0 °F 30.9 °F 89% 30.14 in 1.2 mi South 3.5 mph - 0.02 in Rain Light Rain
3:34 PM 34.0 °F - 30.9 °F 89% 30.14 in 1.8 mi Calm Calm - 0.02 in Rain Light Rain
3:43 PM 35.1 °F - 30.0 °F 82% 30.15 in 2.0 mi Calm Calm - 0.02 in Rain Light Rain
3:49 PM 35.6 °F - 30.2 °F 81% 30.14 in 1.8 mi Calm Calm - 0.02 in   Overcast
3:53 PM 35.1 °F - 30.9 °F 85% 30.16 in 1.8 mi Calm Calm - 0.02 in   Overcast
4:01 PM 35.1 °F 32.2 °F 30.9 °F 85% 30.14 in 2.5 mi WNW 3.5 mph - N/A   Overcast
4:13 PM 35.1 °F 32.2 °F 30.9 °F 85% 30.14 in 3.0 mi NW 3.5 mph - N/A   Overcast
4:46 PM 35.1 °F 32.2 °F 30.9 °F 85% 30.14 in 4.0 mi WNW 3.5 mph - N/A   Overcast
4:53 PM 35.1 °F - 30.0 °F 82% 30.16 in 5.0 mi Calm Calm - N/A   Haze
5:53 PM 35.1 °F - 30.0 °F 82% 30.15 in 4.0 mi Calm Calm - N/A   Haze
6:03 PM 35.1 °F - 30.0 °F 82% 30.13 in 5.0 mi Calm Calm - N/A   Haze
6:53 PM 35.1 °F - 32.0 °F 89% 30.14 in 4.0 mi Calm Calm - N/A   Overcast
7:53 PM 36.0 °F 33.3 °F 30.9 °F 82% 30.16 in 9.0 mi East 3.5 mph - N/A   Overcast
8:53 PM 36.0 °F - 30.9 °F 82% 30.16 in 10.0 mi Calm Calm - 0.00 in Rain Light Rain
9:35 PM 35.1 °F 32.2 °F 30.9 °F 85% 30.16 in 7.0 mi East 3.5 mph - 0.00 in Rain Light Rain
9:53 PM 36.0 °F - 30.0 °F 79% 30.18 in 7.0 mi Calm Calm - 0.01 in Rain Light Rain
10:53 PM 36.0 °F - 30.9 °F 82% 30.22 in 10.0 mi Calm Calm - 0.00 in   Overcast
11:53 PM 36.0 °F 31.1 °F 30.0 °F 79% 30.25 in 10.0 mi Variable 5.8 mph - N/A   Overcast